Regional Weather Roundup
Issued by NWS

Home | Current Version | Previous Version | Text Only | Print | Product List | Glossary On
Versions: 1 2 3 4 5 6 7 8 9 10 11 12 13 14 15 16 17 18 19 20 21 22 23 24 25 26 27 28 29 30 31 32 33 34 35 36 37 38 39 40 41 42 43 44 45 46 47 48 49 50
000
ASUS43 KLMK 211210
RWRKY
KENTUCKY REGIONAL WEATHER ROUNDUP
NATIONAL WEATHER SERVICE LOUISVILLE KY
700 AM EST SAT JAN 21 2017

NOTE "FAIR" INDICATES FEW OR NO CLOUDS BELOW 12,000 FEET
WITH NO SIGNIFICANT WEATHER AND/OR OBSTRUCTIONS TO VISIBILITY.

KYZ001>023-026-027-061>063-070>075-211300-
WESTERN AND SOUTH CENTRAL KENTUCKY

CITY           SKY/WX    TMP DP  RH WIND       PRES   REMARKS
PADUCAH        CLOUDY    57  50  77 S6        29.62F
HENDERSON      CLOUDY    55  48  76 S8        29.64F
OWENSBORO      CLOUDY    53  50  89 SE6       29.67F
HOPKINSVILLE   CLOUDY    56  53  89 SE5       29.68F
BOWLING GREEN  CLOUDY    52  50  93 E3        29.71F
GLASGOW        MOCLDY    55  51  87 CALM      29.73S
$$

KYZ024-025-028>034-038-045-046-053-211300-
NORTH CENTRAL KENTUCKY

CITY           SKY/WX    TMP DP  RH WIND       PRES   REMARKS
LOUISVILLE/SDF CLOUDY    51  48  89 SE8       29.70F
LOUISVILLE/LOU CLOUDY    52  48  86 SE5       29.71F
FORT KNOX      MOCLDY    51  50  98 CALM      29.69F
$$

KYZ035>037-039>044-047>052-055>060-089>105-211300-
NORTHEAST KENTUCKY

CITY           SKY/WX    TMP DP  RH WIND       PRES   REMARKS
LEXINGTON      PTCLDY    53  47  79 S7        29.75F
COVINGTON      PTCLDY    50  48  93 S9        29.72R
FRANKFORT      PTCLDY    52  47  83 S5        29.73S
$$

KYZ054-064>069-076>088-106>120-211300-
SOUTHEAST KENTUCKY

CITY           SKY/WX    TMP DP  RH WIND       PRES   REMARKS
JACKSON        CLEAR     53  48  83 S3        29.79R
LONDON         CLEAR     46  43  89 CALM      29.79F
SOMERSET       PTCLDY    52  48  87 S5        29.78F
MIDDLESBORO    CLOUDY    43  43 100 CALM      29.82F
MONTICELLO     MOSUNNY   46  45  96 N10       29.78F
$$





USA.gov is the U.S. government's official web portal to all federal, state and local government web resources and services.